Wind_Speed
14 15 16 9 12 12 12 11 12 9 13 13 10 12 12 15 19 23 26 32 36 33 32 30 28 25 24 28 29 22 20 18 22 17 14 6 10 23 35 30 31 29 30 29
17 19 12 14 16 14 14 14 12 11 9 14 14 17 18 17 19 19 28 30 29 24 21 21 19 16 18 17 14 22 22 16 19 14 12 9 8 22 48 39 34 30 28 28
18 12 7 11 16 15 14 15 13 11 12 14 14 11 1 7 11 21 25 26 27 28 18 11 6 6 8 12 21 23 22 18 18 15 10 8 13 16 40 33 31 32 32 30
17 19 21 18 14 13 14 11 9 9 11 4 7 5 8 6 11 22 23 23 24 17 12 9 12 10 12 14 21 18 18 14 15 15 12 10 14 19 18 23 27 31 34 29
10 9 9 17 16 12 12 10 10 11 9 9 7 4 3 4 12 20 20 16 14 16 17 16 12 10 13 13 14 13 9 12 15 14 14 12 9 12 15 25 31 34 32 31
23 19 11 11 12 11 11 10 11 9 4 3 5 4 4 4 13 17 19 6 10 12 12 14 11 10 8 11 11 8 8 9 8 13 12 11 12 14 19 11 18 27 35 39
26 25 22 18 15 14 13 8 2 1 2 3 6 6 5 6 11 13 14 5 8 8 7 4 8 9 7 8 7 7 6 8 10 10 12 12 11 15 16 15 7 13 18 21
20 8 25 21 23 13 14 12 5 4 2 2 6 7 2 5 8 9 9 4 7 4 3 6 5 7 8 6 5 4 3 2 2 4 6 7 10 12 16 17 20 14 15 26
13 10 11 13 20 20 12 13 10 3 1 2 4 6 8 4 5 5 3 3 4 5 7 6 7 4 3 3 3 6 6 5 3 2 7 9 9 10 9 14 10 11 12 24
11 6 12 20 17 21 16 8 6 6 3 3 5 8 8 5 4 3 1 1 1 3 5 9 11 10 8 7 5 6 9 7 3 4 2 9 14 10 9 9 11 13 13 15
30 15 11 20 21 23 21 19 10 6 4 3 2 5 6 4 2 2 4 3 2 3 5 7 10 9 10 9 10 8 9 8 5 9 10 10 16 11 7 8 10 13 14 14
32 16 13 23 17 18 21 20 19 7 6 6 2 7 8 5 2 1 4 3 4 4 6 8 8 9 8 9 12 12 11 9 8 8 10 14 13 14 12 10 6 6 8 7
36 15 8 6 17 22 25 27 24 21 8 11 6 4 10 6 4 4 3 3 4 6 7 10 12 8 11 9 10 13 11 6 9 8 8 12 12 10 10 7 5 3 5 8
21 27 18 16 5 13 29 29 28 25 14 13 22 9 9 7 6 6 5 3 6 7 8 11 11 12 12 13 13 13 10 11 13 16 14 12 11 12 11 11 11 8 8 5
29 27 27 19 10 9 9 11 24 33 30 19 17 16 9 13 13 10 9 7 5 7 9 13 12 11 14 13 15 16 15 10 10 11 11 11 11 10 10 9 8 7 7 5
36 22 26 24 25 21 20 18 18 20 26 29 28 25 16 16 15 16 10 11 8 9 11 14 13 13 13 13 13 13 12 13 11 9 10 9 7 7 8 7 6 5 2 3
41 38 29 17 23 20 20 29 26 25 24 20 26 7 10 13 21 18 13 11 11 11 11 11 11 11 12 13 12 12 11 10 9 9 10 9 8 7 6 4 5 5 5 4
42 42 29 13 15 6 18 17 18 20 20 20 19 15 12 11 11 19 18 14 14 15 14 13 12 11 10 10 10 11 11 10 10 9 9 8 7 5 5 5 5 4 3 2
40 42 22 14 22 9 13 22 23 20 15 14 13 15 18 19 18 21 23 19 17 15 14 13 13 13 12 12 11 10 9 9 9 9 9 7 6 5 5 5 5 5 6 6
37 40 32 21 9 9 15 16 12 18 20 17 14 15 18 20 19 13 19 20 18 20 20 18 15 13 12 12 12 11 11 10 9 8 7 6 4 3 2 2 2 3 4 5
38 38 39 27 13 12 13 16 26 15 8 11 11 12 14 13 10 18 21 21 18 17 19 19 17 15 13 13 12 11 10 10 8 8 7 5 4 3 2 3 4 6 7 8
41 31 28 28 18 9 18 16 20 24 19 10 10 11 13 17 18 16 16 19 18 17 18 18 18 17 17 16 15 14 13 12 10 10 9 8 7 7 7 8 8 9 9 10
35 41 38 36 32 6 26 24 21 9 14 14 11 12 13 14 14 14 15 15 14 15 14 15 16 18 18 18 17 17 18 16 15 14 13 13 12 12 12 12 12 12 12 12
46 40 35 35 35 34 16 10 25 17 15 14 13 12 12 14 15 15 15 15 14 13 14 16 16 16 16 16 17 19 21 19 19 18 17 16 15 15 14 14 14 14 14 13
44 38 42 38 29 23 29 29 13 14 21 16 18 16 14 15 15 15 15 14 14 14 14 14 14 14 13 14 17 20 20 19 19 19 18 17 16 15 15 15 15 15 15 15
43 53 50 49 43 38 31 23 24 27 22 25 20 19 18 16 14 14 15 15 14 12 12 12 13 14 14 15 17 19 20 19 18 19 18 17 17 16 15 15 15 16 16 16
Wind_Direction
237 240 241 264 256 255 270 285 290 311 301 293 282 286 283 277 285 288 296 301 304 303 297 288 277 265 247 243 248 221 209 222 228 237 218 221 226 191 180 200 189 183 186 198
242 252 259 249 244 256 262 281 295 312 309 299 291 294 286 276 284 295 312 319 313 313 296 295 289 262 242 239 198 182 198 217 221 219 240 222 212 176 182 187 191 183 186 197
249 250 254 252 243 251 257 276 292 287 300 300 295 307 211 301 281 318 325 322 329 331 338 328 305 226 193 162 166 181 193 206 201 203 219 183 154 182 189 193 182 183 188 199
263 259 254 241 236 246 259 275 274 286 301 277 300 290 285 277 297 326 334 327 335 2 19 56 92 118 146 160 168 181 185 187 189 194 192 209 172 163 185 167 187 192 192 202
243 257 251 234 240 243 256 265 275 292 285 274 272 241 232 265 309 331 334 329 16 52 77 83 89 125 146 157 169 170 166 183 190 196 195 198 194 182 177 187 187 193 202 200
243 248 252 237 226 236 240 257 278 281 256 239 206 220 246 259 326 335 343 19 75 80 86 96 100 93 133 154 157 168 165 172 174 186 214 215 194 186 203 192 197 202 209 218
239 244 243 241 233 228 232 233 289 199 203 237 201 236 245 297 328 339 357 58 107 97 107 124 123 132 140 139 162 186 209 217 219 217 226 225 208 190 180 186 187 214 204 198
217 235 230 236 229 230 227 220 204 212 214 265 217 234 216 304 320 338 12 50 116 133 112 132 142 131 127 125 116 123 133 123 185 228 226 218 199 191 195 196 198 219 197 203
215 223 230 217 218 217 221 217 228 197 248 290 239 257 263 239 304 326 17 22 124 118 108 133 166 191 208 186 140 125 132 134 141 262 239 238 227 209 204 188 207 199 198 201
232 209 211 206 208 215 218 210 184 204 163 245 264 269 212 225 273 304 192 75 186 177 156 134 131 146 145 137 125 122 129 135 114 78 85 183 177 182 177 191 230 230 190 178
222 223 193 198 211 215 210 214 209 199 190 191 273 256 195 213 262 298 191 167 188 219 138 112 127 124 135 147 159 158 143 146 135 96 90 159 165 165 168 151 166 175 183 201
212 221 213 210 219 226 227 236 223 202 199 198 202 272 209 213 234 274 201 211 172 180 154 144 132 137 129 132 142 136 145 169 176 149 131 122 150 165 150 118 122 122 129 163
209 209 175 187 230 228 223 222 219 220 221 206 172 248 194 207 232 230 235 226 200 170 156 155 159 151 142 136 137 142 161 157 154 154 126 133 147 154 158 152 132 156 181 161
210 212 210 207 202 212 215 223 218 217 217 218 224 221 208 230 268 259 234 210 197 183 166 155 153 157 149 141 151 134 146 123 130 126 119 114 121 129 145 143 161 172 182 183
210 211 222 227 226 205 208 223 222 223 230 230 258 249 245 253 246 253 238 217 190 186 173 165 152 146 146 137 144 143 137 135 125 111 115 125 136 144 135 145 152 184 193 207
209 209 220 228 237 245 247 239 233 234 240 246 255 264 248 234 234 229 230 215 199 181 167 165 161 152 149 143 142 144 141 139 146 137 136 139 137 132 135 141 160 182 167 275
210 213 216 218 231 237 249 238 237 242 246 252 250 267 234 223 223 216 220 218 201 195 180 175 175 165 158 155 153 152 152 152 149 144 140 135 131 127 119 106 73 50 30 349
220 214 213 209 192 219 242 240 236 245 252 253 249 234 221 223 213 208 210 215 208 203 197 188 181 175 167 161 157 154 154 153 148 142 140 137 132 119 95 76 64 52 30 360
220 220 203 197 198 234 223 223 227 230 245 232 232 210 207 214 220 211 211 208 208 203 204 197 188 183 178 174 169 164 162 158 156 154 150 147 137 113 86 65 42 18 358 349
215 214 210 193 194 205 247 224 213 233 251 228 225 219 216 214 221 208 210 203 206 203 203 207 205 200 195 189 181 176 175 175 175 173 169 166 155 136 104 67 32 5 354 345
199 207 210 206 203 221 203 207 218 207 224 213 214 215 212 206 157 190 188 195 199 209 213 213 208 206 207 207 204 199 196 197 196 195 200 202 206 226 268 303 321 329 335 338
200 191 204 204 202 218 201 202 207 224 232 213 214 201 181 175 186 188 189 194 201 206 207 208 211 213 215 215 217 220 220 225 224 229 234 241 253 266 279 289 299 307 314 321
206 211 205 208 207 193 223 229 227 221 193 199 202 199 192 185 174 174 182 189 194 199 201 204 210 215 218 221 223 224 231 236 238 241 244 249 257 266 274 283 290 295 299 305
220 221 220 221 223 226 221 228 224 224 199 193 199 192 185 179 174 175 177 182 186 193 201 203 207 213 218 222 224 222 230 231 236 241 245 249 254 260 267 273 280 284 287 291
223 216 215 219 217 214 227 235 217 221 208 218 212 196 190 185 178 179 179 179 183 187 196 202 203 207 212 220 224 228 235 237 237 240 244 246 249 253 259 267 273 277 281 283
224 225 224 226 227 231 235 238 230 236 217 207 206 204 202 193 189 189 188 188 189 187 192 203 205 206 212 221 228 233 238 240 238 239 241 242 243 247 255 266 274 277 279 279
Height
3128 3128 3127 3130 3130 3130 3130 3130 3129 3129 3127 3125 3124 3122 3122 3120 3117 3114 3110 3106 3098 3091 3085 3079 3077 3079 3082 3085 3089 3096 3102 3104 3107 3109 3110 3109 3110 3110 3111 3120 3126 3130 3139 3145
3126 3123 3126 3126 3127 3127 3127 3127 3126 3126 3124 3122 3120 3118 3117 3116 3113 3110 3106 3099 3090 3084 3077 3073 3071 3073 3077 3079 3085 3092 3099 3100 3102 3106 3106 3108 3106 3100 3105 3116 3123 3128 3136 3142
3121 3122 3122 3122 3123 3124 3124 3123 3124 3124 3121 3119 3116 3114 3111 3113 3110 3107 3101 3093 3085 3077 3071 3069 3068 3070 3074 3078 3083 3090 3094 3096 3100 3103 3104 3105 3102 3102 3106 3111 3119 3126 3133 3139
3118 3117 3116 3118 3119 3121 3120 3120 3120 3120 3119 3118 3116 3115 3110 3109 3107 3104 3097 3091 3084 3076 3072 3071 3071 3073 3077 3080 3084 3089 3093 3094 3097 3101 3103 3105 3102 3104 3109 3113 3121 3127 3131 3136
3115 3113 3112 3114 3116 3118 3118 3117 3118 3117 3115 3115 3113 3114 3108 3107 3105 3101 3096 3091 3085 3080 3078 3077 3077 3078 3080 3083 3087 3089 3092 3095 3097 3100 3101 3103 3104 3106 3109 3115 3120 3126 3130 3133
3110 3111 3111 3112 3113 3114 3114 3115 3115 3114 3113 3113 3110 3111 3106 3105 3103 3099 3093 3088 3087 3084 3083 3082 3082 3083 3084 3087 3088 3090 3092 3094 3096 3098 3099 3102 3104 3106 3110 3112 3116 3123 3125 3129
3104 3105 3107 3109 3110 3111 3111 3112 3113 3114 3113 3108 3107 3108 3102 3101 3100 3097 3093 3089 3088 3087 3086 3086 3086 3086 3088 3089 3090 3091 3093 3094 3095 3097 3098 3099 3102 3106 3109 3112 3115 3119 3120 3124
3098 3100 3100 3102 3105 3108 3107 3109 3108 3111 3110 3106 3105 3102 3100 3099 3098 3095 3093 3091 3089 3087 3087 3087 3088 3088 3089 3090 3091 3091 3092 3094 3096 3097 3099 3099 3100 3103 3106 3110 3115 3116 3117 3120
3093 3094 3095 3098 3100 3105 3103 3104 3106 3106 3107 3105 3100 3098 3097 3096 3095 3094 3092 3091 3089 3088 3087 3087 3088 3089 3090 3091 3091 3092 3092 3094 3096 3096 3098 3099 3100 3102 3106 3110 3111 3113 3114 3118
3091 3091 3092 3094 3097 3099 3099 3101 3102 3103 3105 3102 3097 3094 3092 3093 3092 3091 3091 3090 3090 3088 3087 3086 3087 3088 3090 3091 3092 3093 3094 3094 3095 3095 3094 3097 3100 3104 3107 3108 3111 3113 3113 3115
3086 3089 3090 3092 3091 3092 3095 3095 3097 3099 3099 3097 3096 3090 3089 3090 3089 3089 3089 3089 3090 3088 3087 3086 3087 3087 3089 3090 3091 3092 3095 3096 3096 3096 3095 3097 3101 3104 3105 3106 3109 3111 3112 3115
3078 3084 3083 3085 3087 3088 3090 3091 3092 3093 3095 3095 3095 3089 3087 3088 3087 3087 3087 3087 3088 3089 3088 3088 3088 3089 3089 3090 3091 3092 3095 3096 3098 3099 3098 3098 3100 3103 3106 3108 3111 3113 3114 3115
3070 3076 3080 3082 3086 3083 3081 3083 3086 3088 3089 3089 3092 3086 3085 3086 3086 3086 3086 3085 3086 3087 3088 3088 3089 3089 3090 3091 3093 3094 3095 3096 3097 3099 3099 3099 3100 3102 3103 3105 3111 3112 3114 3114
3064 3067 3068 3070 3069 3070 3072 3074 3079 3083 3083 3082 3080 3082 3083 3084 3085 3084 3084 3084 3084 3085 3087 3088 3089 3090 3091 3093 3094 3095 3096 3097 3099 3099 3100 3102 3103 3104 3105 3105 3107 3110 3113 3114
3057 3059 3063 3066 3068 3068 3069 3070 3072 3073 3074 3075 3074 3076 3080 3081 3082 3083 3082 3082 3082 3084 3085 3087 3089 3090 3091 3093 3095 3096 3098 3099 3099 3099 3100 3103 3106 3108 3107 3109 3109 3112 3112 3113
3049 3052 3057 3060 3063 3065 3065 3065 3067 3069 3069 3069 3069 3068 3074 3076 3078 3079 3080 3081 3081 3083 3084 3086 3088 3089 3091 3093 3095 3096 3097 3099 3101 3103 3104 3106 3107 3108 3108 3108 3110 3112 3110 3111
3041 3044 3048 3053 3057 3059 3058 3056 3058 3060 3061 3063 3063 3065 3067 3069 3071 3075 3077 3079 3080 3081 3083 3085 3087 3089 3090 3092 3094 3096 3097 3099 3100 3102 3104 3106 3107 3108 3108 3108 3108 3108 3108 3110
3031 3037 3044 3046 3050 3052 3047 3049 3052 3053 3054 3055 3057 3060 3063 3065 3067 3070 3073 3076 3077 3079 3082 3084 3086 3087 3089 3091 3093 3095 3097 3099 3100 3102 3103 3105 3106 3107 3107 3107 3107 3108 3109 3110
3024 3030 3036 3039 3042 3042 3041 3043 3045 3047 3049 3049 3051 3054 3056 3059 3062 3064 3067 3072 3075 3077 3080 3082 3084 3087 3089 3091 3093 3095 3097 3098 3100 3101 3103 3104 3105 3106 3106 3107 3107 3108 3108 3108
3016 3022 3028 3029 3033 3034 3034 3040 3041 3044 3043 3045 3047 3049 3051 3053 3055 3060 3064 3068 3071 3073 3076 3079 3082 3084 3087 3089 3092 3094 3096 3098 3100 3101 3102 3103 3103 3104 3105 3106 3106 3107 3107 3107
3005 3011 3015 3019 3023 3025 3030 3033 3037 3042 3043 3041 3043 3045 3047 3049 3055 3056 3059 3063 3068 3071 3074 3076 3079 3082 3085 3087 3090 3092 3094 3096 3098 3099 3101 3101 3102 3103 3104 3104 3104 3104 3104 3103
2993 3002 3007 3013 3016 3021 3024 3029 3032 3036 3035 3038 3040 3043 3045 3047 3050 3054 3057 3060 3064 3067 3070 3073 3077 3080 3082 3084 3087 3089 3091 3093 3095 3097 3098 3100 3101 3102 3102 3102 3102 3102 3101 3101
2989 2993 2994 3001 3005 3012 3017 3024 3027 3031 3033 3036 3038 3041 3043 3046 3049 3052 3055 3058 3061 3065 3068 3071 3074 3076 3079 3082 3085 3087 3088 3090 3092 3094 3096 3097 3098 3099 3099 3100 3099 3099 3099 3098
2980 2985 2991 2998 3001 3010 3015 3019 3023 3028 3031 3033 3036 3039 3042 3045 3048 3051 3053 3056 3059 3062 3065 3068 3070 3073 3075 3079 3082 3083 3084 3087 3089 3090 3092 3094 3095 3096 3096 3097 3096 3096 3096 3095
2973 2978 2982 2989 2996 3004 3010 3015 3021 3024 3028 3031 3033 3037 3040 3043 3046 3049 3052 3054 3057 3060 3062 3065 3068 3070 3073 3075 3077 3079 3080 3083 3085 3086 3088 3089 3091 3092 3092 3093 3093 3093 3092 3091
2958 2963 2971 2974 2989 2998 3007 3013 3017 3021 3023 3027 3030 3033 3037 3041 3044 3047 3049 3052 3054 3057 3059 3062 3064 3066 3068 3071 3073 3075 3075 3078 3080 3082 3083 3085 3086 3086 3087 3088 3088 3087 3087 3086